DateTimeUTC,F1_A11,F1_S11,BsB_S11,BsG_S11,BsR_S11,BbsB_S11,BbsG_S11,BbsR_S11,BaB_A11,BaG_A11,BaR_A11,Tu_S11,T_S11,Uu_S11,U_S11,P_S11,T1_A11
2021-02-07T16:00:00Z,00040200,21000000,,,,,,,0000.67,0001.04,0000.87,16.1,23.7,,00.0,0656.9,30.9
2021-02-07T16:01:00Z,00040200,21000000,,,,,,,0001.01,0000.69,0000.81,16.1,23.7,,00.0,0656.9,30.9
2021-02-07T16:02:00Z,00040200,21000000,,,,,,,0000.50,0000.72,0000.35,16.1,23.7,,00.0,0656.9,30.9
2021-02-07T16:03:00Z,00040200,61000000,,,,,,,0039.24,0036.45,0030.08,16.1,23.7,,00.0,0656.9,31.0
2021-02-07T16:04:00Z,00040200,41000000,0006.16,0004.38,0002.52,0001.76,0000.63,0000.17,0044.78,0042.60,0034.68,16.5,23.6,,00.0,0657.7,31.0
2021-02-07T16:05:00Z,00040200,01000000,0004.85,0003.16,0001.66,0000.75,0000.66,0000.42,0029.89,0027.42,0022.90,16.6,23.5,,00.0,0657.7,30.9
2021-02-07T16:06:00Z,00040200,01000000,0002.01,0002.10,0001.09,0000.15,0000.38,0000.10,0014.89,0014.11,0012.13,16.5,23.5,,00.0,0657.7,30.9
2021-02-07T16:07:00Z,00040200,01000000,0001.89,0001.53,0000.50,0000.58,0000.20,0000.07,0005.46,0005.01,0003.55,16.5,23.5,,00.0,0657.7,30.9
2021-02-07T16:08:00Z,00040200,01000000,0001.33,0001.22,0000.69,0000.56,0000.22,-000.21,0002.65,0002.36,0002.27,16.4,23.5,,00.0,0657.7,30.9
2021-02-07T16:09:00Z,00040200,01000000,0001.34,0001.24,0000.47,-000.45,0000.13,-000.18,0001.35,0001.61,0001.11,16.4,23.4,,00.0,0657.7,30.9
2021-02-07T16:10:00Z,00040200,01000000,0001.57,0001.12,0000.55,0000.13,0000.06,0000.05,0001.66,0001.36,0000.82,16.4,23.4,,00.0,0657.6,30.9
2021-02-07T16:11:00Z,00040200,01000000,0000.93,0001.18,0000.59,-000.08,0000.05,0000.02,0001.37,0001.78,0001.45,16.3,23.4,,00.0,0657.6,30.9
2021-02-07T16:12:00Z,00040200,01000000,0002.27,0001.38,0000.77,-000.29,0000.14,-000.16,0001.25,0000.71,0000.68,16.3,23.4,,00.0,0657.6,30.9
2021-02-07T16:13:00Z,00040200,01000000,0001.85,0001.28,0000.99,0000.17,0000.34,0000.14,0001.35,0001.32,0000.99,16.3,23.3,,00.0,0657.6,30.9
2021-02-07T16:14:00Z,00040200,01000000,0001.34,0001.48,0000.63,0000.30,0000.12,0000.11,0000.80,0000.49,0000.48,16.2,23.3,,00.0,0657.6,30.9
2021-02-07T16:15:00Z,00040200,01000000,0002.29,0001.23,0000.68,0000.41,-000.01,0000.06,0001.31,0001.53,0001.28,16.2,23.3,,00.0,0657.6,30.9
2021-02-07T16:16:00Z,00040200,01000000,0001.40,0001.34,0000.51,0000.05,0000.13,-000.13,0001.47,0001.34,0000.70,16.3,23.3,,00.0,0657.6,30.9
2021-02-07T16:17:00Z,00040200,01000000,0001.48,0001.43,0000.54,-000.01,-000.07,0000.05,0000.93,0000.88,0000.83,16.3,23.3,,00.0,0657.5,30.9
2021-02-07T16:18:00Z,00040200,01000000,0000.52,0001.27,0000.50,-000.47,-000.01,0000.08,0001.09,0000.71,0001.02,16.4,23.3,,00.0,0657.6,30.9
2021-02-07T16:19:00Z,00040200,01000000,0001.58,0000.82,0000.78,0000.67,0000.22,0000.13,0001.13,0001.11,0000.53,16.5,23.4,,00.0,0657.6,30.9
2021-02-07T16:20:00Z,00040200,01000000,0001.59,0001.61,0000.55,0000.02,0000.06,0000.07,-000.07,0000.22,0000.36,16.6,23.4,,00.0,0657.6,31.0
2021-02-07T16:21:00Z,00040200,01000000,0001.53,0001.35,0000.72,-000.07,0000.31,-000.17,0001.13,0001.02,0000.46,16.6,23.4,,00.0,0657.6,30.9
2021-02-07T16:22:00Z,00040200,01000000,0002.14,0001.49,0000.66,-000.17,0000.07,-000.47,0000.67,0000.48,0000.80,16.6,23.4,,00.0,0657.6,31.0
2021-02-07T16:23:00Z,00040200,01000000,0001.26,0000.92,0000.51,0000.44,0000.10,-000.06,0000.81,0000.84,0000.44,16.5,23.4,,00.0,0657.6,31.0
2021-02-07T16:24:00Z,00040200,01000000,0001.72,0001.52,0000.52,-000.18,0000.15,0000.13,0000.55,0000.44,0000.55,16.5,23.4,,00.0,0657.6,30.9
2021-02-07T16:25:00Z,00040200,01000000,0001.83,0001.16,0000.56,0000.09,-000.00,-000.09,0000.78,0000.74,0000.39,16.4,23.3,,00.0,0657.6,30.9
2021-02-07T16:26:00Z,00040200,01000000,0001.07,0001.15,0000.55,-000.07,0000.11,-000.04,0000.74,0000.78,0000.49,16.4,23.3,,00.0,0657.5,30.9
2021-02-07T16:27:00Z,00040200,01000000,0001.24,0001.25,0000.47,0000.32,0000.17,-000.13,0000.91,0001.24,0000.69,16.4,23.3,,00.0,0657.5,30.9
2021-02-07T16:28:00Z,00040200,01000000,0002.53,0001.32,0000.31,-000.04,0000.25,-000.05,0001.16,0000.15,0000.68,16.3,23.3,,00.0,0657.5,30.9
2021-02-07T16:29:00Z,00040200,01000000,0001.92,0001.04,0000.17,-000.30,0000.39,-000.01,0000.19,0000.55,0000.49,16.3,23.2,,00.0,0657.5,30.9
2021-02-07T16:30:00Z,00040200,01000000,0001.81,0001.08,0000.45,0000.48,0000.08,-000.03,0000.86,0000.67,0000.67,16.3,23.2,,00.0,0657.5,30.9
2021-02-07T16:31:00Z,00040200,01000000,0000.52,0001.05,0000.53,0000.29,0000.07,0000.13,0001.05,0001.03,0000.37,16.3,23.2,,00.0,0657.4,30.9
2021-02-07T16:32:00Z,00040200,01000000,0001.55,0001.30,0000.60,0000.58,0000.18,-000.09,0000.58,0000.43,0000.67,16.4,23.3,,00.0,0657.4,30.9
2021-02-07T16:33:00Z,00040200,01000000,0000.92,0001.04,0000.64,-000.11,0000.20,0000.07,0000.72,0000.82,0000.44,16.5,23.3,,00.0,0657.4,30.9
2021-02-07T16:34:00Z,00040200,01000000,0001.45,0001.37,0000.54,0000.42,-000.12,0000.06,0001.00,0000.88,0000.44,16.5,23.3,,00.0,0657.3,30.9
2021-02-07T16:35:00Z,00040200,01000000,0001.81,0001.05,0000.33,0000.23,0000.22,0000.04,0000.43,0000.48,0000.19,16.5,23.3,,00.0,0657.3,30.9
2021-02-07T16:36:00Z,00040200,01000000,0001.44,0001.19,0000.39,0000.10,0000.34,0000.06,0000.57,0000.58,0000.51,16.5,23.3,,00.0,0657.3,30.9
2021-02-07T16:37:00Z,00040200,01000000,0001.32,0000.98,0000.25,-000.22,-000.05,0000.09,0000.92,0001.02,0000.64,16.5,23.3,,00.0,0657.3,30.9
2021-02-07T16:38:00Z,00040200,01000000,0001.56,0001.03,0000.23,0000.27,0000.08,0000.03,0000.60,0000.24,0000.57,16.4,23.3,,00.0,0657.3,30.9
2021-02-07T16:39:00Z,00040200,01000000,0000.79,0000.74,0000.54,0000.10,0000.00,0000.22,0000.63,0000.77,0000.68,16.4,23.2,,00.0,0657.3,30.9
2021-02-07T16:40:00Z,00040200,01000000,0001.09,0001.04,0000.54,0000.17,0000.00,-000.13,0000.46,0000.09,-000.10,16.3,23.3,,00.0,0657.3,30.9
2021-02-07T16:41:00Z,00040200,01000000,0001.74,0001.22,0000.54,0000.02,0000.17,-000.08,0000.82,0000.75,0000.96,16.3,23.2,,00.0,0657.3,30.9
2021-02-07T16:42:00Z,00040200,01000000,0001.52,0001.03,0000.41,0000.55,0000.20,0000.22,0001.01,0000.79,0000.42,16.3,23.2,,00.0,0657.3,30.9
2021-02-07T16:43:00Z,00040200,01000000,0001.40,0000.94,0000.30,0000.66,0000.17,-000.12,0000.45,0000.73,0000.21,16.2,23.2,,00.0,0657.4,30.9
2021-02-07T16:44:00Z,00040200,01000000,0001.18,0001.47,0000.34,-000.08,0000.36,-000.05,0000.14,-000.29,0000.31,16.2,23.2,,00.0,0657.3,30.9
2021-02-07T16:45:00Z,00040200,01000000,0001.79,0001.16,0000.74,0000.18,0000.09,0000.01,0000.43,0000.84,0000.46,16.2,23.1,,00.0,0657.3,30.9
2021-02-07T16:46:00Z,00040200,01000000,0001.69,0001.51,0000.72,-000.23,0000.01,-000.05,0000.32,-000.02,0000.32,16.2,23.2,,00.0,0657.3,30.9
2021-02-07T16:47:00Z,00040200,01000000,0000.61,0001.15,0000.44,0000.71,0000.02,0000.04,0000.96,0000.95,0000.17,16.3,23.2,,00.0,0657.3,30.9
2021-02-07T16:48:00Z,00040200,01000000,0001.34,0001.08,0000.61,-000.17,0000.38,-000.17,0000.54,0000.39,0000.47,16.4,23.2,,00.0,0657.4,30.9
2021-02-07T16:49:00Z,00040200,01000000,0001.78,0001.29,0000.40,-000.00,-000.05,-000.20,-000.04,0000.21,0000.21,16.5,23.2,,00.0,0657.4,30.9
2021-02-07T16:50:00Z,00040200,01000000,0001.53,0000.94,0000.48,0000.31,0000.13,0000.18,0000.82,0000.40,0000.25,16.5,23.3,,00.0,0657.4,30.9
2021-02-07T16:51:00Z,00040200,01000000,0001.56,0001.33,0000.45,0000.53,0000.06,-000.11,0000.38,0000.20,0000.46,16.5,23.3,,00.0,0657.4,30.9
2021-02-07T16:52:00Z,00040200,01000000,0001.07,0001.18,0000.67,-000.10,0000.24,0000.28,0000.32,0000.61,0000.28,16.5,23.3,,00.0,0657.4,30.9
2021-02-07T16:53:00Z,00040200,01000000,0001.34,0001.18,0000.44,0001.10,0000.14,-000.07,0000.55,0000.42,0000.57,16.4,23.2,,00.0,0657.4,30.9
2021-02-07T16:54:00Z,00040200,01000000,0001.94,0001.29,0000.41,0000.20,0000.20,0000.09,0000.44,0000.63,0000.15,16.4,23.2,,00.0,0657.4,30.9
2021-02-07T16:55:00Z,00040200,01000000,0001.79,0000.90,0000.58,-000.11,0000.34,-000.00,0000.57,0000.41,0000.32,16.3,23.2,,00.0,0657.4,30.9
2021-02-07T16:56:00Z,00040200,01000000,0001.56,0001.36,0000.38,0000.46,0000.34,-000.10,0000.64,0000.15,0000.12,16.3,23.2,,00.0,0657.4,30.9
2021-02-07T16:57:00Z,00040200,41000000,,,,,,,0000.46,0000.83,0000.37,16.3,23.2,,00.0,0657.4,30.9
2021-02-07T16:58:00Z,00040200,61000000,,,,,,,0000.20,-000.05,0000.10,15.9,23.3,,00.0,0656.4,30.9
2021-02-07T16:59:00Z,00040200,21000000,,,,,,,-000.79,-000.39,-000.19,15.8,23.4,,00.0,0656.4,30.9
